| time (UTC) | temp F | wind direction | speed MPH | gust MPH | rain 1hr in | rain 24hr in | rain mn in | humidity % | barometer mb |
| 20260507084653 | 53 | 0 | 0.0 | 0.0 | 181.81 | 0.00 | 0.00 | ||
| 20260507084155 | 53 | 0 | 0.0 | 0.0 | 181.81 | 0.00 | 0.00 | ||
| 20260507083652 | 53 | 0 | 0.0 | 0.0 | 181.81 | 0.00 | 0.00 | ||
| 20260507071656 | 55 | 0 | 0.0 | 0.0 | 181.81 | 0.00 | 0.00 | ||
| 20260507071156 | 56 | 0 | 0.0 | 0.0 | 181.81 | 0.00 | 0.00 | ||
| 20260507070654 | 57 | 66 | 3.0 | 6.0 | 181.81 | 0.00 | 0.00 | ||
| 20260507070155 | 57 | 59 | 3.0 | 5.0 | 181.81 | 0.00 | 0.00 | ||
| 20260507065657 | 56 | 60 | 5.0 | 6.0 | 181.81 | 0.00 | 0.00 | ||
| 20260507065154 | 57 | 0 | 0.0 | 0.0 | 181.81 | 0.00 | 0.00 | ||
| 20260507064654 | 59 | 0 | 0.0 | 0.0 | 181.81 | 0.00 | 0.00 | ||
| 20260507064154 | 59 | 0 | 0.0 | 0.0 | 181.81 | 0.00 | 0.00 | ||
| 20260507063653 | 58 | 0 | 0.0 | 0.0 | 181.81 | 0.00 | 0.00 | ||
| 20260507063153 | 59 | 0 | 0.0 | 0.0 | 181.81 | 0.00 | 0.00 | ||
| 20260507062653 | 59 | 0 | 0.0 | 0.0 | 181.81 | 0.00 | 0.00 | ||
| 20260507062155 | 59 | 0 | 0.0 | 0.0 | 181.81 | 0.00 | 0.00 | ||
| 20260507061655 | 60 | 0 | 0.0 | 0.0 | 181.81 | 0.00 | 0.00 | ||
| 20260507061153 | 60 | 0 | 0.0 | 0.0 | 181.81 | 0.00 | 0.00 | ||
| 20260507060655 | 61 | 0 | 0.0 | 0.0 | 181.81 | 0.00 | 0.00 | ||
| 20260507060153 | 60 | 0 | 0.0 | 0.0 | 181.81 | 0.00 | 0.00 | ||
| 20260507055654 | 60 | 0 | 0.0 | 0.0 | 181.81 | 0.00 | 0.00 | ||
| 20260507055154 | 60 | 0 | 0.0 | 0.0 | 181.81 | 0.00 | 0.00 | ||
| 20260507054654 | 59 | 0 | 0.0 | 0.0 | 181.81 | 0.00 | 0.00 | ||
| 20260507054155 | 60 | 0 | 0.0 | 0.0 | 181.81 | 0.00 | 0.00 | ||
| 20260507053655 | 62 | 0 | 0.0 | 0.0 | 181.81 | 0.00 | 0.00 | ||
| 20260507053153 | 61 | 0 | 0.0 | 0.0 | 181.81 | 0.00 | 0.00 | ||
| 20260507052653 | 60 | 0 | 0.0 | 0.0 | 181.81 | 0.00 | 0.00 | ||
| 20260507052153 | 62 | 0 | 0.0 | 0.0 | 181.81 | 0.00 | 0.05 | ||
| 20260507051653 | 60 | 0 | 0.0 | 0.0 | 181.81 | 0.00 | 0.05 | ||
| 20260507051153 | 60 | 0 | 0.0 | 0.0 | 181.81 | 0.00 | 0.05 | ||
| 20260507050653 | 62 | 0 | 0.0 | 0.0 | 181.81 | 0.00 | 0.05 | ||
| 20260507050157 | 58 | 0 | 0.0 | 0.0 | 181.81 | 0.00 | 0.05 | ||
| 20260507045654 | 60 | 0 | 0.0 | 0.0 | 181.81 | 0.00 | 0.05 | ||
| 20260507045153 | 59 | 0 | 0.0 | 0.0 | 181.81 | 0.00 | 0.05 | ||
| 20260507044653 | 59 | 0 | 0.0 | 0.0 | 181.81 | 0.00 | 0.05 | ||
| 20260507044156 | 58 | 0 | 0.0 | 0.0 | 181.81 | 0.00 | 0.05 | ||
| 20260507043653 | 60 | 0 | 0.0 | 0.0 | 181.81 | 0.00 | 0.05 | ||
| 20260507043153 | 59 | 0 | 0.0 | 0.0 | 181.81 | 0.00 | 0.05 | ||
| 20260507042653 | 59 | 129 | 4.0 | 5.0 | 181.81 | 0.00 | 0.05 | ||
| 20260507042155 | 59 | 129 | 2.0 | 5.0 | 181.81 | 0.00 | 0.05 | ||
| 20260507041653 | 60 | 0 | 0.0 | 0.0 | 181.81 | 0.00 | 0.05 | ||
| 20260507041155 | 60 | 0 | 0.0 | 0.0 | 181.81 | 0.00 | 0.05 | ||
| 20260507040653 | 60 | 0 | 0.0 | 0.0 | 181.81 | 0.00 | 0.05 | ||
| 20260507040153 | 61 | 0 | 0.0 | 0.0 | 181.81 | 0.00 | 0.05 | ||
| 20260507035653 | 60 | 0 | 0.0 | 0.0 | 181.81 | 0.00 | 0.05 | ||
| 20260507035154 | 61 | 0 | 0.0 | 0.0 | 181.81 | 0.00 | 0.05 | ||
| 20260507034653 | 60 | 0 | 0.0 | 0.0 | 181.81 | 0.00 | 0.05 | ||
| 20260507034154 | 63 | 263 | 2.0 | 6.0 | 181.80 | 0.00 | 0.04 | ||
| 20260507033653 | 61 | 262 | 2.0 | 5.0 | 181.80 | 0.00 | 0.04 | ||
| 20260507033153 | 62 | 0 | 0.0 | 0.0 | 181.80 | 0.00 | 0.04 | ||
| 20260507032653 | 64 | 0 | 0.0 | 0.0 | 181.80 | 0.00 | 0.04 | ||
| 20260507032154 | 63 | 0 | 0.0 | 0.0 | 181.80 | 0.00 | 0.04 | ||
| 20260507031653 | 64 | 0 | 0.0 | 0.0 | 181.80 | 0.00 | 0.04 | ||
| 20260507031155 | 63 | 294 | 1.0 | 3.0 | 181.80 | 0.00 | 0.04 | ||
| 20260507030654 | 62 | 0 | 0.0 | 0.0 | 181.80 | 0.00 | 0.04 | ||
| 20260507030155 | 62 | 0 | 0.0 | 0.0 | 181.80 | 0.00 | 0.04 | ||
| 20260507025653 | 62 | 0 | 0.0 | 0.0 | 181.80 | 0.00 | 0.04 | ||
| 20260507025154 | 62 | 0 | 0.0 | 0.0 | 181.80 | 0.00 | 0.04 | ||
| 20260507024654 | 61 | 0 | 0.0 | 0.0 | 181.80 | 0.00 | 0.04 | ||
| 20260507024153 | 63 | 0 | 0.0 | 0.0 | 181.80 | 0.00 | 0.04 | ||
| 20260507023653 | 62 | 0 | 0.0 | 0.0 | 181.80 | 0.00 | 0.04 |